Date String (YYYY-MM-DD hh:mm:ss) UTC,Instrument flags,Ambient pressure (hPa),Sample flow (lpm),Bypass flow (lpm),Sample temperature (°C),Ambient temperature (°C),ASC tube jacket temperature (°C),LED temperature (°C),Box temperature (°C),Sample RH (%),Span deviation,Mass concentration (μg/m³),Mass concentration (μg/m³),Mass concentration (μg/m³)
DateTimeUTC,F1_M11,P_M11,Q1_M11,Q2_M11,T1_M11,T2_M11,T3_M11,T4_M11,T5_M11,U1_M11,ZSPAN_M11,X0_M11,X2_M11,X1_M11
2022-02-23 10:00:00,,0828.3,5.01,0.00,22.3,22.0,00.0,31.3,24.0,03.8,0000.0,0005.96,0003.44,0003.03
2022-02-23 10:01:00,,0828.3,4.98,0.00,22.2,21.5,00.0,31.2,23.8,03.8,0000.0,0006.02,0003.47,0003.04
2022-02-23 10:02:00,,0828.3,5.01,0.00,22.1,21.0,00.0,31.2,23.6,03.9,0000.0,0005.70,0003.47,0003.06
2022-02-23 10:03:00,,0828.3,5.01,0.00,22.0,20.6,00.0,31.1,23.4,03.9,0000.0,0006.00,0003.48,0003.08
2022-02-23 10:04:00,,0828.3,4.99,0.00,21.9,20.6,00.0,31.1,23.3,03.9,0000.0,0006.39,0003.50,0003.09
2022-02-23 10:05:00,,0828.3,5.01,0.00,22.0,21.5,00.0,31.1,23.5,03.9,0000.0,0006.35,0003.50,0003.11
2022-02-23 10:06:00,,0828.3,5.00,0.00,22.1,22.4,00.0,31.2,23.8,03.9,0000.0,0006.12,0003.47,0003.12
2022-02-23 10:07:00,,0828.3,4.99,0.00,22.2,22.9,00.0,31.2,24.1,03.9,0000.0,0006.13,0003.47,0003.12
2022-02-23 10:08:00,,0828.3,5.00,0.00,22.3,22.4,00.0,31.2,24.0,03.9,0000.0,0006.48,0003.51,0003.13
2022-02-23 10:09:00,,0828.4,5.01,0.00,22.2,21.8,00.0,31.2,23.8,03.9,0000.0,0006.53,0003.53,0003.14
2022-02-23 10:10:00,,0828.3,4.99,0.00,22.1,21.2,00.0,31.1,23.6,03.9,0000.0,0006.71,0003.56,0003.16
2022-02-23 10:11:00,,0828.3,5.01,0.00,22.0,20.9,00.0,31.1,23.5,03.9,0000.0,0007.54,0003.53,0003.16
2022-02-23 10:12:00,,0828.3,5.00,0.00,21.9,20.8,00.0,31.1,23.3,03.9,0000.0,0007.48,0003.52,0003.16
2022-02-23 10:13:00,,0828.3,4.99,0.00,21.9,21.2,00.0,31.1,23.3,03.9,0000.0,0007.62,0003.52,0003.15
2022-02-23 10:14:00,,0828.3,5.02,0.00,22.0,22.0,00.0,31.1,23.6,03.9,0000.0,0007.47,0003.51,0003.14
2022-02-23 10:15:00,,0828.4,4.98,0.00,22.1,22.7,00.0,31.1,23.9,03.9,0000.0,0007.20,0003.48,0003.12
2022-02-23 10:16:00,,0828.3,5.01,0.00,22.2,22.8,00.0,31.1,24.0,03.8,0000.0,0007.32,0003.50,0003.09
2022-02-23 10:17:00,,0828.2,5.00,0.00,22.2,22.4,00.0,31.1,23.9,03.8,0000.0,0007.30,0003.49,0003.08
2022-02-23 10:18:00,,0828.4,5.01,0.00,22.1,22.0,00.0,31.1,23.7,03.8,0000.0,0007.52,0003.47,0003.06
2022-02-23 10:19:00,,0828.2,4.98,0.00,22.0,21.6,00.0,31.1,23.5,03.8,0000.0,0007.49,0003.47,0003.04
2022-02-23 10:20:00,,0828.3,5.00,0.00,21.9,21.3,00.0,31.0,23.4,03.8,0000.0,0007.43,0003.45,0003.00
2022-02-23 10:21:00,,0828.3,5.00,0.00,21.9,21.6,00.0,31.1,23.4,03.8,0000.0,0007.42,0003.43,0002.97
2022-02-23 10:22:00,,0828.3,5.00,0.00,22.0,22.2,00.0,31.1,23.7,03.8,0000.0,0006.26,0003.44,0002.95
2022-02-23 10:23:00,,0828.3,5.01,0.00,22.1,22.9,00.0,31.1,24.0,03.8,0000.0,0006.20,0003.44,0002.93
2022-02-23 10:24:00,,0828.3,5.01,0.00,22.3,23.0,00.0,31.1,24.1,03.7,0000.0,0006.14,0003.46,0002.92
2022-02-23 10:25:00,,0828.3,5.00,0.00,22.2,22.6,00.0,31.1,24.0,03.7,0000.0,0006.03,0003.45,0002.91
2022-02-23 10:26:00,,0828.3,4.98,0.00,22.1,22.1,00.0,31.1,23.7,03.7,0000.0,0006.60,0003.49,0002.93
2022-02-23 10:27:00,,0828.3,5.01,0.00,22.0,21.7,00.0,31.1,23.5,03.7,0000.0,0006.82,0003.46,0002.93
2022-02-23 10:28:00,,0828.3,5.00,0.00,21.9,21.5,00.0,31.1,23.3,03.7,0000.0,0006.94,0003.48,0002.93
2022-02-23 10:29:00,,0828.4,4.99,0.00,22.0,22.0,00.0,31.1,23.6,03.7,0000.0,0006.65,0003.49,0002.92
2022-02-23 10:30:00,,0828.4,5.00,0.00,22.1,22.6,00.0,31.1,23.9,03.7,0000.0,0006.34,0003.47,0002.91
2022-02-23 10:31:00,,0828.4,5.00,0.00,22.2,23.0,00.0,31.2,24.1,03.6,0000.0,0006.42,0003.47,0002.92
2022-02-23 10:32:00,,0828.4,5.00,0.00,22.3,22.7,00.0,31.2,24.0,03.6,0000.0,0006.40,0003.48,0002.92
2022-02-23 10:33:00,,0828.3,4.99,0.00,22.2,22.3,00.0,31.2,23.9,03.6,0000.0,0006.68,0003.47,0002.91
2022-02-23 10:34:00,,0828.3,5.00,0.00,22.1,21.9,00.0,31.2,23.7,03.6,0000.0,0006.65,0003.46,0002.91
2022-02-23 10:35:00,,0828.4,5.01,0.00,22.0,21.5,00.0,31.1,23.5,03.6,0000.0,0006.60,0003.44,0002.91
2022-02-23 10:36:00,,0828.3,4.99,0.00,21.9,21.4,00.0,31.1,23.4,03.6,0000.0,0006.65,0003.44,0002.91
2022-02-23 10:37:00,,0828.3,4.99,0.00,22.0,21.9,00.0,31.1,23.6,03.6,0000.0,0006.15,0003.41,0002.90
2022-02-23 10:38:00,,0828.2,5.01,0.00,22.1,22.5,00.0,31.1,23.8,03.6,0000.0,0006.47,0003.43,0002.90
2022-02-23 10:39:00,,0828.3,5.01,0.00,22.3,23.1,00.0,31.2,24.1,03.6,0000.0,0006.50,0003.44,0002.91
2022-02-23 10:40:00,,0828.3,5.00,0.00,22.4,23.1,00.0,31.2,24.2,03.5,0000.0,0006.49,0003.46,0002.92
2022-02-23 10:41:00,,0828.3,5.00,0.00,22.3,22.7,00.0,31.2,24.0,03.5,0000.0,0006.42,0003.47,0002.95
2022-02-23 10:42:00,,0828.3,4.99,0.00,22.2,22.2,00.0,31.2,23.8,03.5,0000.0,0006.21,0003.43,0002.95
2022-02-23 10:43:00,,0828.3,5.01,0.00,22.1,21.7,00.0,31.2,23.5,03.6,0000.0,0006.18,0003.42,0002.95
2022-02-23 10:44:00,,0828.3,5.00,0.00,22.0,21.4,00.0,31.1,23.3,03.6,0000.0,0005.97,0003.42,0002.94
2022-02-23 10:45:00,,0828.2,4.99,0.00,21.9,21.5,00.0,31.1,23.4,03.6,0000.0,0006.01,0003.43,0002.95
2022-02-23 10:46:00,,0828.2,5.01,0.00,22.0,22.1,00.0,31.2,23.7,03.5,0000.0,0006.59,0003.45,0002.96
2022-02-23 10:47:00,,0828.3,5.00,0.00,22.2,22.7,00.0,31.2,23.9,03.5,0000.0,0006.41,0003.43,0002.95
2022-02-23 10:48:00,,0828.3,5.01,0.00,22.3,23.1,00.0,31.2,24.1,03.5,0000.0,0006.29,0003.42,0002.93
2022-02-23 10:49:00,,0828.2,4.98,0.00,22.3,22.9,00.0,31.2,24.1,03.4,0000.0,0005.66,0003.37,0002.92
2022-02-23 10:50:00,,0828.1,4.99,0.00,22.2,22.4,00.0,31.2,23.9,03.4,0000.0,0005.53,0003.35,0002.91
2022-02-23 10:51:00,,0828.1,5.01,0.00,22.1,21.9,00.0,31.2,23.6,03.4,0000.0,0005.32,0003.30,0002.88
2022-02-23 10:52:00,,0828.3,4.99,0.00,22.0,21.5,00.0,31.2,23.4,03.5,0000.0,0005.28,0003.29,0002.84
2022-02-23 10:53:00,,0828.3,5.01,0.00,22.0,21.6,00.0,31.2,23.4,03.5,0000.0,0005.65,0003.32,0002.83
2022-02-23 10:54:00,,0828.3,5.00,0.00,22.1,22.2,00.0,31.2,23.7,03.4,0000.0,0005.70,0003.32,0002.82
2022-02-23 10:55:00,,0828.3,5.00,0.00,22.2,22.8,00.0,31.2,24.0,03.4,0000.0,0005.76,0003.31,0002.81
2022-02-23 10:56:00,,0828.2,5.01,0.00,22.3,23.2,00.0,31.2,24.2,03.4,0000.0,0005.81,0003.31,0002.80
2022-02-23 10:57:00,,0828.1,4.98,0.00,22.4,23.0,00.0,31.3,24.2,03.4,0000.0,0005.32,0003.30,0002.78
2022-02-23 10:58:00,,0828.1,5.02,0.00,22.3,22.5,00.0,31.3,24.0,03.4,0000.0,0005.31,0003.31,0002.79
2022-02-23 10:59:00,,0828.3,4.99,0.00,22.2,22.0,00.0,31.2,23.8,03.4,0000.0,0006.94,0003.32,0002.78
